{"data":{"norad_id":58177,"epoch":"2026-09-20T21:44:46.688352Z","epoch_age_seconds":105373,"freshness":"FRESH","line1":"1 58177U 23167C   26263.90609593 -.00000258  00000+0  12838-6 0  9990","line2":"2 58177  43.0023 120.6893 0000993 272.5496  87.5242 15.27578503160847","mean_motion":15.27578503,"eccentricity":9.93e-5,"inclination_deg":43.0023,"raan_deg":120.6893,"arg_perigee_deg":272.5496,"mean_anomaly_deg":87.5242,"bstar":1.2838e-7,"rev_number":16084,"period_min":94.266841093403,"perigee_km":482.3722623754,"apogee_km":483.73489482431,"semimajor_km":6861.1905785999,"source":"CELESTRAK","updated_at":"2026-09-21T09:00:33.826099Z"}}